Location: Killam
(52.7910°N, 111.8608°W)
Time: 02:13:05
(UTC+00:00)

Oscar 11 - Pass Details

Date: 16 March 2026
Orbit: 590 x 602 km, 97.8° (Epoch: 13 April)

Event Time Altitude Azimuth Distance (km) Brightness Sun altitude
Rises 09:46:28 0° 29° (NNE) 2,840 11.5 -32.2°
Reaches altitude 10° 09:49:37 10° 55° (NE) 1,930 10.4 -31.9°
Maximum altitude 09:51:51 14° 87° (E) 1,672 9.7 -31.6°
Enters shadow 09:52:33 14° 98° (E) 1,697 9.6 -31.6°
